This is the latest recevied weather packets stored in our database for station/object W7TTE. If no packets are shown the sender has not sent any weather packets the latest 10 day(s).
| Time | Temp. | Humidity | Pressure | Rain* | Wind** | Luminosity | Snow |
|---|---|---|---|---|---|---|---|
| 1777754537 | 34.44° C | 16% | 1013.7 hPa | 0 mm | - | 709 W/m² | - |
| 1777754234 | 35° C | 16% | 1013.3 hPa | 0 mm | - | 751 W/m² | - |
| 1777753932 | 35° C | 17% | 1013.6 hPa | 0 mm | - | 758 W/m² | - |
| 1777753626 | 33.89° C | 17% | 1013.7 hPa | 0 mm | - | 763 W/m² | - |
| 1777753324 | 34.44° C | 17% | 1013.6 hPa | 0 mm | - | 762 W/m² | - |
| 1777753021 | 34.44° C | 18% | 1014 hPa | 0 mm | - | 764 W/m² | - |
| 1777752718 | 35° C | 17% | 1013.9 hPa | 0 mm | - | 768 W/m² | - |
| 1777752414 | 35.56° C | 16% | 1014 hPa | 0 mm | - | 782 W/m² | - |
| 1777752110 | 35° C | 16% | 1014 hPa | 0 mm | - | 782 W/m² | - |
| 1777751809 | 34.44° C | 17% | 1013.9 hPa | 0 mm | - | 784 W/m² | - |
| 1777751504 | 34.44° C | 17% | 1014.1 hPa | 0 mm | - | 785 W/m² | - |
| 1777751202 | 34.44° C | 17% | 1014.4 hPa | 0 mm | - | 785 W/m² | - |
| 1777750898 | 33.89° C | 17% | 1014.3 hPa | 0 mm | - | 785 W/m² | - |
| 1777750595 | 34.44° C | 17% | 1014.5 hPa | 0 mm | - | 788 W/m² | - |
| 1777750292 | 33.89° C | 19% | 1014.5 hPa | 0 mm | - | 787 W/m² | - |
| 1777749987 | 33.89° C | 19% | 1014.6 hPa | 0 mm | - | 786 W/m² | - |
| 1777749685 | 34.44° C | 19% | 1014.6 hPa | 0 mm | - | 786 W/m² | - |
| 1777749381 | 34.44° C | 19% | 1014.7 hPa | 0 mm | - | 785 W/m² | - |
| 1777749079 | 34.44° C | 19% | 1014.7 hPa | 0 mm | - | 784 W/m² | - |
| 1777748777 | 34.44° C | 20% | 1014.7 hPa | 0 mm | - | 785 W/m² | - |
| 1777748474 | 33.89° C | 20% | 1014.9 hPa | 0 mm | - | 782 W/m² | - |
| 1777748168 | 33.89° C | 20% | 1015 hPa | 0 mm | - | 779 W/m² | - |
| 1777747865 | 34.44° C | 20% | 1014.9 hPa | 0 mm | - | 780 W/m² | - |
| 1777747561 | 33.33° C | 21% | 1015 hPa | 0 mm | - | 776 W/m² | - |
| 1777747252 | 32.78° C | 21% | 1015.1 hPa | 0 mm | - | 772 W/m² | - |
* Rain latest hour (hover to see other rain measurements)
** Current wind speed in m/s (hover to see current wind gust speed)